User: anonymous   Login
Location: Mentone
(34.5413°N, 85.5351°W)
Time: 07:48:32
(UTC-05:00)
Language:

Cosmos 2026 Rocket - Orbit

View from above orbital plane
View from above orbital plane
View from above satellite
View from above satellite

Ground track
Ground track

The orbit data is extracted from the following two-line orbital elements,

1 20046U 89042B   15245.13733773  .00000122  00000-0  10558-3 0  9993
2 20046  82.9346  70.5867 0043421 102.1742  33.3327 13.78026748319178
Epoch (UTC): 02 September 2015 03:17:45
Eccentricity: 0.0043421
inclination: 82.9346°
perigee height: 939 km
apogee height: 1003 km
right ascension of ascending node: 70.5867°
argument of perigee: 102.1742°
revolutions per day: 13.78026748
mean anomaly at epoch: 33.3327°
orbit number at epoch: 31917

The dashed part of the orbit path shows where the satellite is in the earth's shadow,  

DLR